User: anonymous   Login
Location: Unspecified
(0.0000°N, 0.0000°E)
Time: 09:02:33
(UTC+00:00)
Language:

STSS DEMO 2 (USA 209) - Orbit

View from above orbital plane
View from above orbital plane
View from above satellite
View from above satellite

Ground track
Ground track

The orbit data is extracted from the following two-line orbital elements,

1 35938U 09052B   17049.82909868 0.00000000  00000-0  00000-0 0    08
2 35938  57.9916 343.9245 0018152 175.8217 184.1782 12.79324885    05
Epoch (UTC): 18 February 2017 19:53:54
Eccentricity: 0.0018152
inclination: 57.9916°
perigee height: 1330 km
apogee height: 1358 km
right ascension of ascending node: 343.9245°
argument of perigee: 175.8217°
revolutions per day: 12.79324885
mean anomaly at epoch: 184.1782°
orbit number at epoch: 0

The dashed part of the orbit path shows where the satellite is in the earth's shadow,  

DLR